Regional Weather Roundup
Issued by NWS

Home | Current Version | Previous Version | Graphics & Text | Print | Product List | Glossary On
Versions: 1 2 3 4 5 6 7 8 9 10 11 12 13 14 15 16 17 18 19 20 21 22 23 24 25 26 27 28 29 30 31 32 33 34 35 36 37 38 39 40 41 42 43 44 45 46 47 48 49 50
000
ASUS45 KSLC 201110
RWRUT

UTAH REGIONAL WEATHER ROUNDUP
NATIONAL WEATHER SERVICE SALT LAKE CITY UT
500 AM MDT MON APR 20 2015

UTZ001>011-023>025-201200-

NORTHERN UTAH

CITY           SKY/WX    TMP DP  RH WIND       PRES   REMARKS
BRIGHAM CITY   CLEAR     39  29  66 N6        29.94S WCI  35
HILL AFB       CLEAR     45  28  51 E17G23    29.94S
LOGAN          CLEAR     33  28  81 N5        29.97S WCI  29
OGDEN          CLEAR     42  30  62 S6        29.93S
PROVO AIRPORT  CLEAR     43  30  61 SE6       29.95S
SALT LAKE CITY PTCLDY    46  34  62 SW3       29.93S
VERNAL         CLEAR     36  31  82 W5        29.99S WCI  32
WENDOVER       PTCLDY    45  19  36 SW3       29.96S
HEBER CITY     CLEAR     32  23  69 E6        29.99S WCI  26
WEST JORDAN    CLEAR     45  32  61 W6        29.94F

$$

UTZ012>022-026-027-201200-

SOUTHERN/CENTRAL UTAH

CITY           SKY/WX    TMP DP  RH WIND       PRES   REMARKS
BLANDING       PTCLDY    40  32  74 N8        30.04S WCI  34
BRYCE CANYON   CLEAR     27  17  66 W8        30.04F WCI  19
CEDAR CITY     CLEAR     39  21  48 CALM      29.94S
DELTA          PTCLDY    40  24  52 NE6       29.94S
HANKSVILLE     PTCLDY    45  37  76 N6        29.97S
MILFORD        CLEAR     39  19  44 W8        29.93F WCI  33
MOAB/CYNLANDS  CLEAR     45  39  79 SE6       29.95R
PRICE          MOCLDY    39  29  67 N5        29.98S
ST GEORGE      SUNNY     57  18  21 CALM      29.86S
KANAB          CLEAR     36  21  55 NE5       29.98F WCI  32

$$

REGIONAL REPORTS     COLORADO/ARIZONA

CITY           SKY/WX    TMP DP  RH WIND       PRES   REMARKS
CRAIG, CO      CLOUDY    34  32  92 SW6       30.02F WCI  29
GRAND JUNCTION PTCLDY    43  40  89 E12       29.98S
RIFLE          MOCLDY    38  34  85 E3        30.01S
MONTROSE       CLOUDY    43  39  86 SE8       30.02F
CORTEZ         CLEAR     33  28  81 E6        29.99F WCI  28
PAGE, AZ       CLEAR     51  28  41 CALM      29.90F
GRAND CANYON   CLEAR     25  15  66 CALM      30.04S
KINGMAN        CLEAR     59  16  18 S12       29.89S
FLAGSTAFF      CLEAR     27  22  81 CALM      30.06S

$$

REGIONAL REPORTS    NEVADA/IDAHO/WYOMING

CITY           SKY/WX    TMP DP  RH WIND       PRES   REMARKS
LAS VEGAS, NV  CLEAR     70  16  12 S12       29.74S
ELY            PTCLDY    29   6  38 S15       30.03S WCI  18
ELKO           PTCLDY    32  20  61 CALM      30.00S
POCATELLO, ID  CLEAR     41  26  55 SW9       29.99R
BURLEY         CLEAR     38  26  62 CALM      29.96R
EVANSTON, WY   PTCLDY    33  22  63 E9        30.02S WCI  25
ROCK SPRINGS   CLEAR     29  27  92 NE3       30.03S

$$



USA.gov is the U.S. government's official web portal to all federal, state and local government web resources and services.